Terug naar catalogus

GONETS D1 4

ActiefCommunicatiePO
NORAD 24728·PAYLOAD·🇷🇺 Russia

Gelanceerd Feb 14, 1997 vanaf Plesetsk Cosmodrome

Loading…

Volgende Passages (komende 24 uur)

TLE

VersSource: Space-Track

Epoch: Sep 14, 2026, 04:53 UTC

1 24728U 97006D   26257.20348887  .00000029  00000-0  10053-3 0  9990
2 24728  82.6086 179.5276 0007816 347.3271  12.7624 12.63923103364455

Volg GONETS D1 4 in realtime met AllMySat

Download on the App Store